TimeCST,TemperatureF,Dew PointF,Humidity,Sea Level PressureIn,VisibilityMPH,Wind Direction,Wind SpeedMPH,Gust SpeedMPH,PrecipitationIn,Events,Conditions,WindDirDegrees,DateUTC
12:53 AM,46.0,37.9,73,30.23,10.0,North,8.1,-,N/A,,Clear,10,2013-01-22 06:53:00
1:53 AM,44.1,35.1,71,30.24,10.0,North,5.8,-,N/A,,Clear,10,2013-01-22 07:53:00
2:53 AM,42.1,32.0,67,30.25,10.0,North,5.8,-,N/A,,Clear,10,2013-01-22 08:53:00
3:53 AM,39.0,32.0,76,30.25,10.0,North,5.8,-,N/A,,Clear,10,2013-01-22 09:53:00
4:53 AM,37.0,30.9,79,30.27,10.0,North,5.8,-,N/A,,Clear,10,2013-01-22 10:53:00
5:53 AM,39.0,30.9,73,30.30,10.0,NNE,5.8,-,N/A,,Clear,20,2013-01-22 11:53:00
6:53 AM,37.9,30.0,73,30.32,10.0,NNE,5.8,-,N/A,,Clear,20,2013-01-22 12:53:00
7:53 AM,39.9,30.0,68,30.35,10.0,North,8.1,-,N/A,,Clear,10,2013-01-22 13:53:00
8:53 AM,43.0,30.0,60,30.37,10.0,NNE,6.9,-,N/A,,Clear,30,2013-01-22 14:53:00
9:53 AM,48.9,26.1,41,30.38,10.0,NE,10.4,-,N/A,,Clear,50,2013-01-22 15:53:00
10:53 AM,53.1,27.0,37,30.37,10.0,NNE,5.8,-,N/A,,Clear,30,2013-01-22 16:53:00
11:53 AM,55.9,28.0,34,30.35,10.0,Variable,6.9,-,N/A,,Clear,0,2013-01-22 17:53:00
12:53 PM,60.1,30.9,33,30.31,10.0,North,5.8,-,N/A,,Clear,350,2013-01-22 18:53:00
1:53 PM,60.1,32.0,35,30.30,10.0,Calm,Calm,-,N/A,,Clear,0,2013-01-22 19:53:00
2:53 PM,62.1,34.0,35,30.29,10.0,NNW,4.6,-,N/A,,Clear,330,2013-01-22 20:53:00
3:53 PM,62.1,36.0,38,30.30,10.0,NW,4.6,-,N/A,,Clear,310,2013-01-22 21:53:00
4:53 PM,55.0,37.0,51,30.31,10.0,South,4.6,-,N/A,,Clear,190,2013-01-22 22:53:00
5:53 PM,48.9,37.9,66,30.32,10.0,Calm,Calm,-,N/A,,Clear,0,2013-01-22 23:53:00
6:53 PM,41.0,37.0,86,30.33,10.0,Calm,Calm,-,N/A,,Clear,0,2013-01-23 00:53:00
7:53 PM,39.9,37.0,89,30.35,10.0,Calm,Calm,-,N/A,,Clear,0,2013-01-23 01:53:00
8:53 PM,37.9,36.0,93,30.35,10.0,Calm,Calm,-,N/A,,Clear,0,2013-01-23 02:53:00
9:53 PM,37.0,35.1,93,30.36,10.0,Calm,Calm,-,N/A,,Clear,0,2013-01-23 03:53:00
10:53 PM,37.0,34.0,89,30.37,10.0,Calm,Calm,-,N/A,,Clear,0,2013-01-23 04:53:00
11:53 PM,36.0,34.0,93,30.37,10.0,Calm,Calm,-,N/A,,Clear,0,2013-01-23 05:53:00